Location: Colle Santa Colomba
(42.0333°N, 12.5667°E)
Time: 22:25:00
(UTC+00:00)

Daily predictions for brighter satellites

Satellite Brightness Start Highest point End
(mag) Time Altitude Azimuth Time Altitude Azimuth Time Altitude Azimuth
BREEZE M DEB (TANK) 3.7 16:06:34 10° WNW 16:09:52 80° NNE 16:28:38 10° ESE
CZ-4B R/B 3.7 16:33:03 10° SE 16:38:18 41° ENE 16:43:33 10° N
COSMO-SKYMED 1 3.4 16:35:18 10° NE 16:39:05 29° E 16:42:50 10° SSE
CZ-2C R/B 3.2 16:37:32 10° WSW 16:40:25 21° SSW 16:43:11 10° SE
Cosmos 2263 Rocket 2.2 16:35:10 10° NNW 16:40:46 87° ENE 16:46:20 10° SSE
SL-8 R/B 4.4 16:37:40 10° W 16:42:16 45° NNW 16:46:54 10° ENE
NOSS 2-3 (E) 3.5 16:38:30 10° SSW 16:42:25 62° ESE 16:46:50 10° NE
CZ-4B DEB 4.2 16:37:21 10° SSE 16:42:53 80° ENE 16:48:28 10° NNW
Okean 1-7 Rocket 4.0 16:39:03 10° N 16:43:14 39° ENE 16:47:25 10° SSE
Cosmos 2123 Rocket 4.3 16:37:36 10° N 16:43:42 48° ENE 16:49:43 10° SSE
Cosmos 1892 Rocket 3.6 16:39:47 10° N 16:44:15 84° E 16:48:38 10° S
Cosmos 1980 Rocket 3.6 16:39:36 10° SW 16:44:54 40° WNW 16:50:16 10° N
USA 215 3.7 16:39:12 10° NE 16:45:40 65° NW 16:52:07 10° WSW
Cosmos 332 Rocket 4.3 16:41:28 10° S 16:45:58 38° ESE 16:50:28 10° NE
USA 229 DEB 4.0 16:41:33 10° S 16:47:25 42° ESE 16:53:37 10° NE
USA 229 4.0 16:41:42 10° S 16:47:32 41° ESE 16:53:42 10° NE
CZ-2C R/B 3.3 16:44:09 10° NNE 16:49:17 36° E 16:54:16 10° SSE
Meteor 1-11 4.5 16:45:32 10° N 16:50:57 46° ENE 16:56:21 10° SSE
Cosmos 1939 Rocket 3.4 16:47:32 10° S 16:51:26 63° W 16:55:26 10° NNW
H-2A R/B 3.8 16:52:24 10° ESE 16:55:33 21° ENE 16:58:38 10° NNE
Cosmos 2227 4.3 16:50:08 10° NNW 16:55:56 89° ENE 17:01:41 10° SSE
PSLV R/B 4.0 16:53:24 10° S 16:57:25 79° W 17:01:22 10° NNW
PAYLOAD B 4.3 16:55:08 10° SSE 17:00:40 87° ENE 17:06:16 10° NNW
Cosmos 1892 4.1 16:58:06 10° NNE 17:00:45 18° ENE 17:03:22 10° ESE
FALCON 9 DEB 4.0 16:58:32 10° SSW 17:01:02 26° SE 17:02:45 15° E
SMAP 4.1 16:59:25 10° S 17:03:54 50° W 17:08:27 10° NNW
Cosmos 1626 Rocket 3.7 17:02:05 10° N 17:06:16 47° ENE 17:10:25 10° SSE
Cosmos 1408 3.9 17:05:34 10° NNE 17:08:08 18° ENE 17:09:18 16° E
Cosmos 220 Rocket 4.4 17:04:13 10° S 17:08:25 44° ESE 17:12:36 10° NNE
CZ-2D R/B 3.3 17:05:15 10° S 17:09:05 84° WSW 17:12:59 10° NNW
H-2A R/B 2.1 17:04:05 10° SSE 17:09:29 77° ENE 17:14:57 10° N
NOSS 3-1 (A) 3.2 17:04:49 10° SSW 17:09:53 60° ESE 17:15:45 10° NE
Meteor 2-10 Rocket 3.9 17:04:49 10° SSE 17:10:04 44° E 17:15:08 10° NNE
SL-08 RB Rocket 4.4 17:07:15 10° SE 17:11:17 32° ENE 17:15:21 10° N
Cosmos 371 Rocket 3.7 17:07:02 10° SSW 17:11:52 67° WNW 17:16:45 10° NNE
Cosmos 1844 Rocket 3.3 17:07:38 10° N 17:12:44 35° ENE 17:17:46 10° ESE
FALCON 9 DEB 4.1 17:12:40 10° S 17:15:06 23° SE 17:15:52 21° ESE
X-37B 0.8 17:11:37 10° WNW 17:15:11 86° SSW 17:17:40 18° ESE
SJ-11-01 4.4 17:11:59 10° SSE 17:16:33 55° ENE 17:21:10 10° N
Cosmos 2237 4.2 17:12:36 10° S 17:18:14 65° ESE 17:23:56 10° NNE
USA 267 3.2 17:12:00 10° SE 17:18:32 82° NE 17:25:07 10° NW
Cosmos 1328 4.2 17:14:34 10° NNW 17:18:36 69° W 17:22:36 10° S
EXPRESS MD2 2.9 17:22:34 10° SSW 17:24:31 29° SE 17:24:31 29° SE
Tiangong 1.1 17:23:28 10° W 17:26:40 74° S 17:28:03 30° ESE
FALCON 9 DEB 3.8 17:24:15 10° SSW 17:26:52 28° SE 17:27:08 28° ESE
YAOGAN 3 4.5 17:22:44 10° SSE 17:27:05 78° ENE 17:31:27 10° N
SKYMED 2 3.6 17:22:53 10° N 17:27:16 84° WNW 17:31:36 10° SSW
MOS 1-B Rocket 3.9 17:20:54 10° NNE 17:27:16 75° ESE 17:32:57 10° S
Cosmos 1605 Rocket 4.0 17:22:00 10° S 17:28:14 72° E 17:34:35 10° NNE
YAOGAN 1 3.0 17:24:34 10° SE 17:28:33 38° ENE 17:32:34 10° N
NOSS 2-3 (D) 4.3 17:26:10 10° SW 17:30:04 51° NW 17:34:34 10° NNE
BREEZE-M R/B 3.1 17:27:14 10° WNW 17:30:35 44° NNE 17:32:42 24° ENE
H-2A R/B 2.8 17:30:42 25° ENE 17:31:46 28° E 17:35:25 10° SSE
Landsat 5 3.7 17:27:33 10° NNE 17:32:01 84° WNW 17:36:32 10° SSW
Cosmos 1455 3.5 17:29:49 10° SSE 17:31:46 22° SE 17:31:46 22° SE
NOSS 3-1 (C) 3.9 17:28:36 10° SW 17:33:44 53° NW 17:39:45 10° NNE
ATLAS 5 CENTAUR R/B 4.1 17:33:19 10° WNW 17:35:18 13° NNW 17:37:23 10° N
Cosmos 44 3.5 17:30:14 10° SSW 17:35:40 86° ESE 17:40:55 11° NE
COSMOS 2428 4.0 17:31:52 10° SSE 17:34:44 19° ESE 17:34:44 19° ESE
Cosmos 2278 Rocket 4.2 17:37:08 10° NNE 17:38:37 11° NE 17:38:37 11° NE
Cosmos 1447 Rocket 4.4 17:33:22 10° N 17:39:25 59° E 17:45:28 10° SSE
Lacrosse 4 Rocket 1.5 17:35:06 10° NNW 17:39:27 83° WSW 17:43:52 10° SSE
FALCON 9 DEB 3.5 17:36:21 10° SSW 17:39:36 42° SE 17:39:57 41° ESE
Cosmos 1606 Rocket 4.2 17:35:52 10° SSE 17:39:50 32° E 17:40:12 31° E
Cosmos 1140 Rocket 4.2 17:35:50 10° N 17:40:24 30° ENE 17:41:12 29° ENE
Cosmos 1300 4.3 17:37:33 10° SSW 17:41:06 37° WNW 17:44:40 10° N
Cosmos 2333 4.5 17:36:45 10° S 17:42:01 43° ESE 17:45:49 18° NE
Cosmos 407 Rocket 4.2 17:37:30 10° N 17:42:19 33° ENE 17:43:30 30° E
Cosmos 1825 4.1 17:40:32 10° NNE 17:41:33 16° NNE 17:41:33 16° NNE
SL-16 R/B 3.2 17:38:51 10° SW 17:44:18 48° WNW 17:49:48 10° NNE
SWARM C 4.5 17:42:08 10° S 17:45:25 82° W 17:48:44 10° N
SWARM A 4.2 17:42:21 10° S 17:45:38 82° W 17:48:57 10° N
Cosmos 2251 Rocket 3.4 17:40:39 10° NNW 17:45:55 74° ENE 17:51:08 10° SSE
Cosmos 1153 Rocket 4.5 17:43:03 10° S 17:49:21 66° E 17:55:42 10° NNE
Cosmos 2322 Rocket 3.0 17:50:19 10° SW 17:55:45 50° WNW 18:01:14 10° NNE
DMSP B5D1-3 4.4 17:51:42 10° NNE 17:56:50 64° ESE 18:01:56 10° S
CZ-4C R/B 4.3 17:56:57 10° N 18:00:04 38° WNW 18:03:04 10° SW
Okean O Rocket 2.9 17:56:33 10° S 18:00:37 40° W 18:04:45 10° NNW
Cosmos 2219 Rocket 2.4 17:55:38 10° S 18:00:51 43° ESE 18:01:22 42° E
IRAS Rocket 4.2 17:57:39 10° NNE 18:03:13 85° WNW 18:08:43 10° SSW
Cosmos 2360 Rocket 2.4 17:58:58 10° SSW 18:04:35 71° WNW 18:10:16 10° NNE
CZ-4 R/B 1.3 18:01:07 13° SSE 18:04:40 85° WSW 18:08:48 10° NNW
Cosmos 614 Rocket 4.1 18:00:08 10° NNW 18:05:12 70° WSW 18:10:16 10° S
Meteor 1-4 Rocket 4.4 18:02:22 10° SW 18:05:28 30° WNW 18:08:35 10° NNW
NOSS 2-2 (E) 3.9 18:02:37 10° SSW 18:04:48 36° S 18:04:48 36° S
MetOp-A 4.2 18:05:20 43° ESE 18:06:39 54° ENE 18:11:53 10° N
ARGOS 3.9 18:02:04 10° S 18:07:20 54° W 18:12:40 10° NNW
Cosmos 1844 3.6 18:02:35 10° NNW 18:08:24 79° ENE 18:11:17 31° SSE
FALCON 9 DEB 4.1 18:06:03 10° WSW 18:08:08 40° W 18:08:08 40° W
Cosmos 1602 Rocket 4.5 18:05:28 10° NNW 18:09:39 48° W 18:13:48 10° SSW
Cosmos 1932 4.3 18:04:32 10° NNW 18:10:49 84° ENE 18:13:52 33° SE
Meteor 2-11 Rocket 4.3 18:08:52 10° S 18:15:01 81° E 18:21:12 10° N
Cosmos 2333 Rocket 2.1 18:09:24 10° SSW 18:15:01 70° ESE 18:17:12 38° NE
OAO 3 Rocket 4.2 18:10:58 10° SW 18:15:13 32° S 18:15:13 32° S
IRS-1C Rocket 4.0 18:19:34 25° SSE 18:22:43 87° WSW 18:28:01 10° NNW
SL-8 R/B 4.5 18:20:58 10° WNW 18:25:25 40° N 18:25:25 40° N
Okean-O 2.9 18:26:34 57° N 18:26:34 57° N 18:30:07 10° NNW
Cosmos 1190 Rocket 4.5 18:22:17 10° NNW 18:26:12 45° NNE 18:26:12 45° NNE
SL-24 R/B - RUBIN 2 4.4 18:22:49 10° SSW 18:28:11 56° SSE 18:28:11 56° SSE
CSL-04 Debris 4.0 18:28:29 72° ESE 18:28:55 78° ENE 18:34:21 10° N
CZ-2C R/B 4.4 18:24:34 10° N 18:29:26 32° WNW 18:34:14 10° SW
H-2A R/B 4.0 18:26:51 10° SSW 18:30:47 35° W 18:34:36 10° NNW
Cosmos 1825 Rocket 4.0 18:27:41 10° NNW 18:31:17 57° NW 18:31:17 57° NW
Cosmos 2228 4.1 18:31:08 10° SSW 18:35:21 46° WNW 18:39:36 10° N
Cosmos 2322 3.6 18:31:18 10° SSW 18:37:01 87° WNW 18:38:00 63° NNE
CSL-04 Rocket 3.6 18:39:01 86° ENE 18:39:01 86° ENE 18:44:35 10° NNW
Cosmos 1459 Rocket 3.9 18:39:38 10° S 18:45:51 81° W 18:52:00 10° N
Cosmos 2100 Rocket 4.3 18:45:27 10° SSW 18:51:43 68° W 18:58:04 10° N
X-37B 3.8 18:50:08 10° W 18:51:10 15° WSW 18:51:10 15° WSW
Cosmos 1844 Rocket 4.1 18:51:34 10° NW 18:56:33 34° WSW 18:59:39 20° SSW
Cosmos 2173 Rocket 4.4 18:56:09 10° SSW 19:02:15 59° W 19:08:28 10° N
H-2A R/B 4.1 19:07:49 24° WNW 19:07:49 24° WNW 19:11:00 10° WSW
Milstar 3 Cent rocket 4.2 19:03:41 10° SW 19:09:21 35° S 19:09:21 35° S
CENTAUR R/B 4.1 19:07:12 10° NNW 19:12:59 32° NNE 19:12:59 32° NNE
COSMOS 2428 4.2 19:14:10 10° SW 19:16:52 28° SW 19:16:52 28° SW
Cosmos 2278 Rocket 4.1 19:18:39 10° NNW 19:20:28 21° NNW 19:20:28 21° NNW
Cosmos 2219 Rocket 4.1 19:40:08 10° WSW 19:43:11 24° W 19:43:11 24° W
Cosmos 2333 Rocket 4.5 19:55:46 10° W 19:59:19 20° WNW 19:59:19 20° WNW
